TimeCST,TemperatureF,Dew PointF,Humidity,Sea Level PressureIn,VisibilityMPH,Wind Direction,Wind SpeedMPH,Gust SpeedMPH,PrecipitationIn,Events,Conditions,WindDirDegrees,DateUTC
12:15 AM,36.1,34.7,94,29.71,2.0,ESE,9.2,-,N/A,,Overcast,110,2013-12-03 06:15:00
12:35 AM,36.1,34.7,94,29.71,2.0,East,10.4,-,N/A,,Overcast,100,2013-12-03 06:35:00
12:55 AM,36.1,34.7,94,29.71,2.0,ESE,8.1,-,N/A,,Overcast,110,2013-12-03 06:55:00
1:15 AM,36.1,34.7,94,29.70,1.8,East,5.8,-,N/A,,Overcast,90,2013-12-03 07:15:00
1:35 AM,36.1,34.7,94,29.71,1.5,Calm,Calm,-,N/A,,Overcast,0,2013-12-03 07:35:00
1:55 AM,36.1,34.7,94,29.69,1.5,ESE,6.9,-,N/A,,Overcast,110,2013-12-03 07:55:00
2:15 AM,36.1,34.7,94,29.70,1.2,East,8.1,-,N/A,,Overcast,100,2013-12-03 08:15:00
2:35 AM,36.1,34.7,94,29.71,1.5,East,5.8,-,N/A,,Overcast,100,2013-12-03 08:35:00
2:55 AM,36.3,34.7,94,29.69,1.2,East,5.8,-,N/A,,Overcast,90,2013-12-03 08:55:00
3:15 AM,36.7,35.1,94,29.69,1.2,ESE,8.1,-,N/A,,Overcast,110,2013-12-03 09:15:00
3:35 AM,37.9,36.5,95,29.69,1.5,ESE,4.6,-,N/A,,Overcast,110,2013-12-03 09:35:00
3:55 AM,38.7,37.2,95,29.69,1.2,ESE,4.6,-,N/A,,Overcast,110,2013-12-03 09:55:00
4:15 AM,37.4,36.1,95,29.68,1.2,ESE,3.5,-,N/A,,Overcast,120,2013-12-03 10:15:00
4:35 AM,38.7,37.4,95,29.68,1.2,ESE,4.6,-,N/A,,Overcast,120,2013-12-03 10:35:00
4:55 AM,38.7,37.4,95,29.69,0.8,Calm,Calm,-,N/A,,Overcast,0,2013-12-03 10:55:00
5:15 AM,38.7,37.4,95,29.69,0.8,SE,8.1,-,N/A,Rain,Light Rain,140,2013-12-03 11:15:00
5:35 AM,38.7,37.4,95,29.66,0.5,SSE,11.5,-,N/A,Fog,Fog,150,2013-12-03 11:35:00
5:55 AM,38.7,37.4,95,29.68,0.5,SE,6.9,-,N/A,Fog,Fog,130,2013-12-03 11:55:00
6:15 AM,38.7,37.4,95,29.69,0.5,ENE,4.6,-,N/A,Fog,Fog,60,2013-12-03 12:15:00
6:35 AM,38.7,37.4,95,29.69,0.2,NE,5.8,-,N/A,Fog,Fog,50,2013-12-03 12:35:00
6:55 AM,38.7,37.4,95,29.70,0.2,East,3.5,-,N/A,Fog,Fog,90,2013-12-03 12:55:00
7:15 AM,38.7,37.4,95,29.69,0.2,East,4.6,-,N/A,Fog,Fog,100,2013-12-03 13:15:00
7:35 AM,38.7,37.4,95,29.69,0.2,East,6.9,-,N/A,Fog,Fog,100,2013-12-03 13:35:00
7:55 AM,38.7,37.4,95,29.67,0.2,East,10.4,-,N/A,Fog,Fog,100,2013-12-03 13:55:00
8:15 AM,38.7,37.4,95,29.66,0.2,ESE,10.4,-,N/A,Fog,Fog,120,2013-12-03 14:15:00
8:35 AM,38.7,37.4,95,29.69,0.2,SE,5.8,-,N/A,Fog,Fog,130,2013-12-03 14:35:00
8:55 AM,38.7,37.4,95,29.70,0.2,SE,6.9,-,N/A,Fog,Fog,140,2013-12-03 14:55:00
9:15 AM,38.7,37.4,95,29.69,0.2,ESE,6.9,-,N/A,Fog,Fog,120,2013-12-03 15:15:00
9:35 AM,38.7,37.4,95,29.69,0.2,ESE,5.8,-,0.01,Fog,Fog,110,2013-12-03 15:35:00
9:55 AM,38.7,37.4,95,29.69,0.2,East,6.9,-,0.01,,Light Drizzle,100,2013-12-03 15:55:00
10:15 AM,38.7,37.4,95,29.69,0.2,East,6.9,-,N/A,Fog,Fog,100,2013-12-03 16:15:00
10:35 AM,39.9,38.5,95,29.69,0.2,East,6.9,-,N/A,Fog,Fog,100,2013-12-03 16:35:00
10:55 AM,40.1,38.7,95,29.69,0.2,ESE,6.9,-,N/A,Fog,Fog,110,2013-12-03 16:55:00
11:15 AM,41.2,40.1,96,29.68,0.2,ESE,8.1,-,N/A,Fog,Fog,110,2013-12-03 17:15:00
11:35 AM,41.2,40.1,96,29.68,0.2,East,5.8,-,N/A,Fog,Fog,90,2013-12-03 17:35:00
11:55 AM,41.2,40.1,96,29.68,0.2,East,5.8,-,N/A,Fog,Fog,90,2013-12-03 17:55:00
12:15 PM,41.2,40.1,96,29.69,0.2,ENE,3.5,-,N/A,Fog,Fog,60,2013-12-03 18:15:00
12:35 PM,41.2,40.1,96,29.69,0.2,Calm,Calm,-,N/A,Fog,Fog,0,2013-12-03 18:35:00
12:55 PM,41.2,40.1,96,29.69,0.2,Calm,Calm,-,N/A,Fog,Fog,0,2013-12-03 18:55:00
1:15 PM,41.2,40.1,96,29.69,0.2,East,3.5,-,N/A,Fog,Fog,80,2013-12-03 19:15:00
1:35 PM,42.1,40.6,95,29.68,0.2,East,5.8,-,N/A,Fog,Fog,100,2013-12-03 19:35:00
1:55 PM,43.7,42.4,95,29.68,0.2,ESE,4.6,-,N/A,Fog,Fog,110,2013-12-03 19:55:00
2:15 PM,43.7,42.4,95,29.67,0.2,East,4.6,-,N/A,Fog,Fog,90,2013-12-03 20:15:00
2:35 PM,43.7,42.4,95,29.67,0.2,ESE,8.1,-,N/A,Rain,Light Rain,120,2013-12-03 20:35:00
2:55 PM,43.7,42.4,95,29.67,0.2,East,5.8,-,N/A,Rain,Light Rain,100,2013-12-03 20:55:00
3:15 PM,43.7,42.4,95,29.67,0.2,East,4.6,-,N/A,Rain,Light Rain,100,2013-12-03 21:15:00
3:35 PM,43.7,42.4,95,29.67,0.2,East,5.8,-,N/A,Rain,Rain,80,2013-12-03 21:35:00
3:55 PM,43.0,41.5,95,29.67,0.2,ENE,4.6,-,N/A,Rain,Light Rain,70,2013-12-03 21:55:00
4:15 PM,41.9,40.6,95,29.66,0.2,ENE,6.9,-,0.01,,Unknown,70,2013-12-03 22:15:00
4:35 PM,41.5,40.3,95,29.66,0.2,East,6.9,-,0.01,,Unknown,80,2013-12-03 22:35:00
4:55 PM,41.4,40.1,95,29.66,0.2,East,6.9,-,0.01,Fog,Fog,90,2013-12-03 22:55:00
5:15 PM,41.2,40.1,96,29.67,0.5,East,4.6,-,N/A,Fog,Fog,80,2013-12-03 23:15:00
5:35 PM,41.4,40.1,95,29.68,0.2,ESE,5.8,-,N/A,Fog,Fog,110,2013-12-03 23:35:00
5:55 PM,41.2,40.1,96,29.70,0.2,SE,4.6,-,N/A,Fog,Fog,140,2013-12-03 23:55:00
6:15 PM,41.2,40.1,96,29.69,0.2,ESE,8.1,-,N/A,Fog,Fog,120,2013-12-04 00:15:00
6:35 PM,41.9,40.5,95,29.69,0.2,ESE,10.4,-,N/A,Fog,Fog,110,2013-12-04 00:35:00
6:55 PM,41.5,40.3,95,29.71,0.2,SE,4.6,-,N/A,Fog,Fog,140,2013-12-04 00:55:00
7:15 PM,41.5,40.3,95,29.71,0.2,SE,5.8,-,N/A,Fog,Fog,140,2013-12-04 01:15:00
7:35 PM,41.2,40.1,96,29.70,0.2,ESE,6.9,-,N/A,Fog,Fog,110,2013-12-04 01:35:00
7:55 PM,41.9,40.6,95,29.70,0.5,ESE,10.4,-,N/A,Fog,Fog,120,2013-12-04 01:55:00
8:15 PM,43.7,42.4,95,29.69,0.8,SE,9.2,-,N/A,,Overcast,130,2013-12-04 02:15:00
8:35 PM,43.7,42.4,95,29.70,1.2,SE,4.6,-,N/A,,Overcast,140,2013-12-04 02:35:00
8:55 PM,43.7,42.4,95,29.71,1.0,Calm,Calm,-,N/A,,Overcast,0,2013-12-04 02:55:00
9:15 PM,43.7,42.4,95,29.70,0.5,ENE,3.5,-,N/A,Fog,Fog,70,2013-12-04 03:15:00
9:35 PM,43.7,42.4,95,29.71,0.5,East,3.5,-,N/A,Fog,Fog,80,2013-12-04 03:35:00
9:55 PM,42.3,40.8,95,29.71,0.2,ENE,3.5,-,N/A,Fog,Fog,70,2013-12-04 03:55:00
10:15 PM,43.7,42.4,95,29.71,0.2,ENE,3.5,-,N/A,Fog,Fog,70,2013-12-04 04:15:00
10:35 PM,43.5,42.3,95,29.70,0.2,ENE,3.5,-,N/A,Fog,Fog,70,2013-12-04 04:35:00
10:55 PM,43.5,42.1,95,29.70,0.2,East,6.9,-,N/A,Fog,Fog,90,2013-12-04 04:55:00
11:15 PM,43.3,42.1,95,29.70,0.2,ENE,4.6,-,N/A,Fog,Fog,70,2013-12-04 05:15:00
11:29 PM,42.8,41.0,93,29.70,0.2,East,5.8,-,N/A,Fog,Fog,80,2013-12-04 05:29:00
11:35 PM,41.9,40.6,95,29.70,0.2,East,5.8,-,N/A,Fog,Fog,80,2013-12-04 05:35:00
11:55 PM,41.9,40.6,95,29.71,0.2,East,3.5,-,N/A,Fog,Fog,80,2013-12-04 05:55:00